Regional Weather Roundup
Issued by NWS

Home | Current Version | Previous Version | Text Only | Print | Product List | Glossary Off
Versions: 1 2 3 4 5 6 7 8 9 10 11 12 13 14 15 16 17 18 19 20 21 22 23 24 25 26 27 28 29 30 31 32 33 34 35 36 37 38 39 40 41 42 43 44 45 46 47 48 49 50

298
ASUS43 KTOP 211408
RWRKS

WEATHER ROUNDUP FOR KANSAS
NATIONAL WEATHER SERVICE GOODLAND KS
800 AM CST SAT JAN 21 2017

NOTE:  "FAIR" INDICATES FEW OR NO CLOUDS BELOW 12,000 FEET WITH NO
SIGNIFICANT WEATHER AND/OR OBSTRUCTIONS TO VISIBILITY.

KSZ001>006-013>018-027>032-041>047-211500-
NORTHWEST KANSAS

CITY           SKY/WX    TMP DP  RH WIND       PRES   REMARKS
GOODLAND       CLOUDY    24  21  88 CALM      29.41F
HAYS           CLEAR     29  27  92 NW7       29.47S
HILL CITY      CLEAR     28  27  96 W3        29.46S
RUSSELL        CLEAR     30  28  92 W7        29.45S
$$

KSZ061>065-074>080-084>089-211500-
SOUTHWEST KANSAS

CITY           SKY/WX    TMP DP  RH WIND       PRES   REMARKS
DODGE CITY     CLEAR     27  25  92 SW3       29.46F
GARDEN CITY    CLOUDY    25  24  96 NE5       29.43F
GREAT BEND     CLEAR     28  28 100 SW7       29.48R
LIBERAL        CLEAR     28  21  74 SW7       29.43F
PRATT          CLEAR     27  26  93 NW3       29.49S
$$

KSZ066>073-081>083-090>101-211500-
SOUTHEAST KANSAS

CITY           SKY/WX    TMP DP  RH WIND       PRES   REMARKS
CHANUTE        CLEAR     36  34  92 S8        29.55R
COFFEYVILLE    CLEAR     37  35  92 S3        29.57R
HUTCHINSON     CLEAR     32  30  92 W5        29.49R
MEDICINE LODGE   N/A     30  28  92 CALM      29.51R
NEWTON         CLEAR     32  32 100 SW8       29.50R
PARSONS        CLEAR     37  35  92 S3        29.57R
WICHITA INTL   PTCLDY    30  29  96 SW5       29.53R
WICHITA JABRA  CLEAR     32  31  96 S10       29.52R WCI  24
WICHITA MCCONL CLEAR     30  29  96 SW7       29.53R
WINFIELD       CLEAR     31  30  96 S6        29.57R
$$

KSZ007>012-019>026-033>040-048>060-102>105-211500-
NORTHEAST KANSAS

CITY           SKY/WX    TMP DP  RH WIND       PRES   REMARKS
CONCORDIA      CLEAR     33  33 100 SW8       29.46R
EMPORIA        CLEAR     30  30 100 S7        29.49R FOG
LAWRENCE       FOG       39  39 100 SE3       29.49S VSB 1/4
MANHATTAN      CLEAR     35  33  92 VRB3      29.45F
MARYSVILLE     CLEAR     34  34 100 NW6       29.44F
OLATHE IND     FOG       39  38  96 S9        29.51R VSB 1/4
OLATHE EXE     FOG       38  38 100 S6        29.50R VSB 1/4
SALINA         CLEAR     32  30  92 SW5       29.47R
TOPEKA BILLARD FOG       29  26  89 N3        29.47F VSB 1/4
TOPEKA FORBES  FOG       35  33  92 S12       29.48R VSB 1/8 WCI  27
$$




USA.gov is the U.S. government's official web portal to all federal, state and local government web resources and services.